Location: ?????
(42.2640°N, 43.4211°E)
Time: 14:45:08
(UTC+00:00)

USA 267 - Pass Details

Date: 07 August 2020
Orbit: 1102 x 1106 km, 123.0° (Epoch: 18 September)

Event Time Altitude Azimuth Distance (km) Brightness Sun altitude
Rises 00:22:29 0° 128° (SE) 3,908 6.3 -16.8°
Reaches altitude 10° 00:24:57 10° 127° (SE) 2,953 5.6 -16.5°
Maximum altitude 00:31:29 86° 42° (NE) 1,109 3.3 -15.6°
Drops below altitude 10° 00:38:04 10° 313° (NW) 2,966 5.4 -14.7°
Sets 00:40:33 0° 313° (NW) 3,926 6.1 -14.3°
